Temp
80 78 75 72 72 72 72 72 72 73 73 73 73 73 73 73 73 73 73 74 74 73 72 71 71 71 71 70 69 70 71 77
84 81 78 76 75 71 71 71 71 72 72 72 72 72 72 72 72 73 73 73 73 72 71 70 70 70 69 69 69 70 70 77
84 83 81 79 79 76 71 72 71 71 72 71 70 75 74 75 73 72 72 72 72 71 70 70 69 68 68 68 68 72 75 77
85 84 83 82 84 80 76 76 75 74 75 74 74 75 77 77 75 71 71 71 70 70 70 69 68 70 68 68 70 73 76 74
87 83 84 82 82 81 81 80 77 77 77 76 75 77 77 76 77 74 72 70 70 69 68 69 69 72 71 69 71 73 76 74
83 78 82 82 85 81 80 78 77 78 78 77 76 75 76 76 77 75 73 71 72 70 70 70 70 71 71 70 71 74 74 69
79 80 76 77 79 79 76 76 77 77 77 78 78 77 76 74 76 75 75 74 72 72 70 70 70 70 71 71 72 73 74 67
78 79 77 77 74 77 77 75 75 76 76 77 77 76 73 73 73 73 72 73 72 70 69 70 70 70 70 70 71 70 72 67
74 75 75 73 75 76 77 75 73 74 73 73 73 74 74 74 72 71 72 71 71 68 68 68 69 69 68 68 68 68 70 66
74 75 72 72 73 75 74 74 73 71 72 72 72 73 72 72 72 71 72 71 69 66 66 66 65 66 65 64 63 65 66 65
71 70 69 70 70 71 67 64 63 66 69 70 72 72 73 72 72 71 71 69 68 66 65 65 64 64 63 62 62 62 63 64
70 69 67 67 68 69 68 66 64 63 61 61 62 65 70 71 70 68 68 67 66 65 64 64 64 63 62 61 61 60 61 60
68 66 66 66 64 63 64 64 63 62 61 62 62 62 61 65 69 68 66 66 65 64 63 62 61 61 58 52 51 52 57 59
67 67 66 67 66 64 63 62 63 63 61 61 61 60 61 61 61 65 64 65 63 62 61 60 60 60 57 54 49 50 50 55
66 66 66 66 64 65 64 63 62 62 63 62 62 61 61 59 60 58 61 63 63 62 61 60 58 58 59 54 47 50 50 48
65 65 65 67 64 62 59 59 58 61 62 64 64 63 62 61 59 59 57 59 60 60 61 60 60 56 58 57 57 52 52 44
62 63 64 64 63 61 59 58 59 60 61 60 61 63 62 62 61 59 56 56 57 58 58 59 59 57 56 55 54 51 55 52
61 61 62 62 61 60 58 56 56 57 57 57 60 62 63 62 62 58 56 56 56 57 58 58 58 58 58 57 55 52 51 52
61 61 60 61 59 58 57 57 56 55 55 57 58 59 59 60 60 59 58 56 56 55 56 56 56 55 56 56 56 55 55 54
59 59 59 59 58 57 57 56 56 55 55 55 56 57 59 58 59 58 60 60 58 56 55 56 56 56 55 55 55 56 56 55
MSLP
1008.28 1009.06 1009.59 1010.05 1010.46 1010.85 1011.19 1011.61 1012.04 1012.38 1012.59 1012.78 1013.24 1013.66 1013.90 1014.22 1014.59 1015.00 1015.40 1015.83 1016.21 1016.55 1016.87 1017.07 1017.27 1017.55 1017.83 1017.86 1017.79 1017.70 1017.88 1017.82
1008.33 1008.79 1009.54 1009.99 1010.42 1010.85 1011.24 1011.60 1011.83 1012.10 1012.34 1012.59 1012.91 1013.24 1013.46 1013.91 1014.48 1015.01 1015.45 1015.78 1016.12 1016.46 1016.87 1017.28 1017.39 1017.50 1017.69 1017.76 1017.87 1017.93 1018.03 1017.82
1008.37 1008.77 1009.26 1009.84 1010.24 1010.73 1011.32 1011.66 1011.94 1012.22 1012.35 1012.49 1012.88 1013.26 1013.58 1013.82 1014.25 1014.62 1015.03 1015.39 1015.88 1016.26 1016.67 1017.06 1017.44 1017.58 1017.62 1017.69 1017.77 1017.83 1017.52 1017.58
1007.58 1008.13 1008.68 1009.20 1009.69 1010.10 1010.90 1011.35 1011.76 1012.05 1012.25 1012.52 1012.78 1012.76 1012.86 1013.21 1013.61 1014.14 1014.63 1015.10 1015.67 1016.15 1016.53 1016.98 1017.32 1017.54 1017.73 1017.74 1017.68 1017.51 1017.25 1017.31
1007.68 1007.76 1008.04 1008.63 1009.23 1009.65 1010.13 1010.59 1011.10 1011.57 1011.88 1012.13 1012.52 1012.54 1012.47 1012.79 1013.08 1013.67 1014.13 1014.71 1015.19 1015.73 1016.22 1016.54 1016.79 1016.85 1017.20 1017.49 1017.51 1017.38 1017.12 1016.97
1008.61 1009.15 1008.60 1008.33 1008.47 1009.42 1009.65 1010.22 1010.61 1010.88 1011.16 1011.65 1011.97 1012.41 1012.35 1012.37 1012.51 1012.90 1013.41 1013.98 1014.39 1014.92 1015.50 1015.87 1016.16 1016.34 1016.65 1016.98 1017.26 1017.05 1016.88 1017.15
1009.06 1009.10 1009.55 1009.70 1009.42 1009.25 1009.82 1010.34 1010.37 1010.39 1010.57 1010.76 1011.08 1011.42 1011.78 1011.72 1011.93 1012.18 1012.63 1013.03 1013.44 1013.98 1014.68 1015.31 1015.53 1015.72 1015.90 1016.43 1016.56 1016.41 1016.32 1017.12
1009.79 1009.63 1009.58 1009.58 1009.81 1009.63 1009.45 1009.82 1010.31 1010.39 1010.50 1010.43 1010.61 1010.73 1010.88 1011.23 1011.52 1011.72 1012.07 1012.21 1012.63 1013.27 1013.91 1014.58 1014.96 1015.11 1015.42 1015.56 1015.79 1015.92 1016.05 1016.89
1010.77 1010.85 1010.77 1010.51 1010.11 1009.91 1009.62 1009.53 1009.83 1010.28 1010.36 1010.39 1010.38 1010.50 1010.78 1011.07 1011.32 1011.64 1011.78 1011.72 1011.87 1012.65 1013.16 1013.62 1014.29 1014.71 1015.18 1015.23 1015.22 1015.52 1015.81 1016.86
1011.50 1011.69 1011.56 1011.29 1010.97 1010.61 1010.47 1010.30 1010.30 1010.24 1010.15 1010.40 1010.40 1010.28 1010.26 1010.70 1010.81 1010.95 1010.96 1011.51 1011.71 1012.28 1012.67 1013.16 1013.85 1014.20 1014.70 1015.08 1015.30 1015.27 1015.63 1016.05
1012.34 1012.32 1012.21 1011.84 1011.59 1011.51 1011.56 1011.71 1011.85 1011.53 1010.98 1010.73 1010.39 1010.07 1009.92 1009.98 1010.00 1009.99 1009.92 1010.79 1010.93 1011.48 1012.06 1012.19 1012.95 1013.68 1014.17 1014.78 1015.10 1015.35 1015.62 1016.13
1013.11 1013.07 1012.88 1012.47 1012.33 1011.98 1011.98 1012.01 1012.01 1011.89 1011.74 1011.66 1011.25 1010.80 1010.09 1009.70 1009.67 1009.97 1009.97 1010.22 1010.33 1010.98 1011.59 1012.15 1012.10 1012.40 1013.39 1014.22 1014.83 1015.24 1015.51 1015.95
1013.46 1013.44 1013.18 1012.81 1012.66 1012.44 1012.29 1012.19 1011.98 1011.82 1011.67 1011.52 1011.42 1011.12 1010.36 1010.21 1009.64 1009.51 1009.38 1009.39 1009.77 1010.26 1010.65 1011.12 1012.54 1012.66 1013.22 1014.39 1015.35 1015.74 1016.12 1016.01
1013.90 1013.77 1013.58 1013.13 1013.07 1012.82 1012.67 1012.44 1012.07 1011.50 1011.46 1011.29 1011.20 1011.13 1010.87 1010.23 1009.89 1009.43 1009.21 1009.11 1009.17 1009.46 1009.71 1010.40 1011.16 1011.83 1012.37 1013.67 1014.72 1015.73 1015.48 1015.96
1014.35 1014.30 1014.15 1013.70 1013.50 1013.20 1012.86 1012.65 1012.06 1011.74 1011.27 1010.83 1010.60 1010.62 1010.53 1010.42 1010.46 1009.63 1009.58 1008.66 1008.31 1008.60 1008.36 1008.90 1009.00 1010.24 1010.22 1011.11 1013.04 1013.72 1014.47 1015.37
1014.32 1014.36 1014.04 1013.77 1013.56 1013.34 1013.34 1013.16 1012.64 1012.20 1011.84 1011.35 1010.55 1010.06 1010.20 1009.90 1009.96 1009.68 1009.47 1009.28 1008.68 1008.51 1008.50 1006.79 1006.93 1008.18 1009.78 1008.07 1009.27 1011.22 1012.73 1014.46
1014.69 1014.71 1014.34 1014.19 1014.08 1013.77 1013.56 1013.26 1012.91 1012.36 1011.80 1011.15 1010.61 1009.98 1009.62 1009.54 1009.38 1009.33 1009.44 1008.91 1009.30 1008.35 1008.88 1007.69 1008.25 1008.24 1008.95 1009.80 1010.65 1011.52 1009.82 1011.67
1014.84 1014.91 1014.78 1014.50 1014.20 1014.10 1013.91 1013.63 1012.97 1012.26 1011.75 1011.29 1010.72 1009.92 1009.22 1008.69 1008.69 1008.64 1008.76 1009.20 1009.08 1008.39 1008.05 1008.41 1007.89 1008.13 1008.37 1008.75 1008.94 1009.76 1010.30 1010.63
1014.72 1014.76 1014.77 1014.71 1014.64 1014.21 1013.96 1013.59 1013.24 1012.85 1012.35 1011.45 1010.47 1009.68 1009.23 1008.72 1008.36 1008.18 1008.09 1008.19 1008.17 1008.00 1007.86 1008.41 1008.25 1007.78 1007.77 1007.44 1007.96 1008.71 1009.26 1010.48
1014.72 1014.80 1014.77 1014.60 1014.48 1014.32 1014.18 1014.02 1013.43 1012.87 1012.28 1011.53 1010.66 1010.22 1009.19 1008.76 1008.37 1008.19 1007.99 1007.96 1007.67 1007.79 1008.21 1008.58 1007.95 1007.49 1007.69 1007.61 1007.36 1007.74 1008.40 1009.15
Wind_Speed
10 9 10 9 9 10 11 12 12 13 14 15 14 13 13 14 13 12 11 10 10 10 11 10 11 11 10 8 8 9 5 4
5 9 9 8 8 8 9 10 12 12 13 13 14 14 15 14 12 11 10 10 11 11 10 9 10 10 10 7 9 7 6 6
5 6 9 7 7 9 8 9 10 10 11 12 10 9 10 11 12 13 13 12 12 12 12 11 9 10 10 8 7 5 7 5
10 8 9 8 7 8 9 9 8 8 9 10 9 10 10 12 13 12 14 13 12 12 12 11 10 6 4 7 4 7 6 4
3 10 7 10 8 3 5 6 6 7 10 10 10 8 8 8 7 8 8 12 7 8 8 7 10 7 7 6 7 8 5 2
15 14 3 4 3 6 3 4 2 6 8 11 8 7 8 7 7 9 10 8 10 9 7 9 10 9 9 9 10 8 4 4
13 11 8 7 6 3 4 3 6 7 5 9 10 9 9 8 8 7 10 9 10 10 9 9 9 11 9 11 11 10 6 5
13 15 13 9 6 5 2 3 5 6 6 7 7 8 7 9 9 9 8 8 9 9 10 9 9 10 10 10 11 6 5 10
12 13 13 13 11 11 1 2 3 3 3 5 6 9 10 12 9 9 8 9 10 8 10 8 8 9 10 8 7 6 6 8
11 11 12 12 13 9 9 7 6 3 3 4 7 10 13 13 10 10 10 9 9 8 9 8 8 7 7 5 4 4 4 8
13 12 13 12 8 8 7 9 8 9 9 8 10 10 12 12 11 10 11 8 9 10 9 12 10 9 8 6 5 5 4 5
9 8 9 8 9 6 5 4 4 4 5 5 9 10 14 12 9 8 9 9 9 10 13 11 12 13 11 8 5 3 3 5
9 9 8 5 6 6 6 7 3 3 2 5 8 8 9 13 10 8 11 13 13 14 13 17 10 9 7 3 4 4 3 5
9 10 9 6 6 5 5 4 6 3 3 3 3 5 7 5 9 8 11 10 12 15 14 8 9 12 9 8 5 3 2 4
10 11 11 7 8 6 5 5 4 5 4 5 3 4 4 4 6 5 8 10 12 16 18 19 13 12 17 8 5 6 5 3
10 11 12 11 9 8 9 9 10 8 9 10 8 5 6 4 4 3 3 5 5 5 9 11 15 13 9 7 3 7 7 4
7 9 10 11 11 10 8 11 10 9 10 12 11 10 7 6 5 4 4 1 5 4 5 5 5 6 8 5 3 5 2 5
6 7 9 9 8 10 9 10 12 13 13 12 11 10 9 7 6 6 5 5 6 2 3 8 9 11 12 12 12 9 6 4
7 11 12 12 14 13 14 16 13 14 15 13 14 10 8 8 7 6 4 5 6 5 4 5 6 5 10 11 10 9 7 8
7 9 11 10 10 14 13 16 11 11 14 14 12 13 8 6 5 7 8 7 6 4 5 7 6 4 10 8 7 9 8 9
Wind_Direction
134 157 163 158 165 169 167 166 169 178 184 179 177 178 177 180 182 181 174 169 174 171 171 174 170 169 181 208 238 234 273 280
134 148 169 175 174 171 173 175 173 181 187 181 180 181 185 182 178 177 173 172 177 168 174 179 176 174 184 207 246 272 264 267
173 158 166 180 192 176 177 184 181 189 194 189 174 196 193 189 196 179 178 177 176 169 172 179 177 180 186 197 231 241 248 228
168 182 166 172 203 178 185 188 195 198 201 197 204 206 197 201 196 181 176 173 167 168 171 175 173 186 193 208 216 242 255 108
193 165 173 168 189 214 180 194 194 205 215 212 201 212 213 199 200 185 178 168 173 171 171 184 193 194 190 199 215 233 255 130
23 9 309 176 176 181 207 162 248 208 208 209 209 214 213 213 208 183 186 178 190 181 186 190 196 212 184 192 211 228 218 107
7 2 26 5 288 182 178 198 215 230 263 209 209 207 219 210 208 193 188 187 193 183 187 193 202 200 193 196 209 221 213 136
15 11 9 358 351 288 196 154 230 234 240 250 244 231 223 219 217 207 197 196 191 196 184 185 201 195 204 188 208 206 214 154
23 20 9 359 355 353 280 6 21 275 242 254 262 245 246 245 237 225 212 205 197 202 184 184 196 196 200 198 196 191 214 171
53 37 21 9 12 358 1 350 331 305 256 240 241 248 252 247 234 223 210 203 208 193 186 181 198 181 183 180 169 172 182 173
30 29 13 360 24 30 40 36 26 6 356 334 297 268 253 252 243 232 223 200 201 191 189 181 178 183 184 187 182 182 180 177
28 26 12 6 8 5 18 33 18 2 5 343 359 348 315 270 254 238 204 200 196 194 195 196 191 185 185 188 195 173 168 165
15 19 8 18 20 351 2 351 351 330 346 346 344 330 359 334 269 230 214 205 203 197 194 186 199 182 155 59 37 11 226 175
6 12 360 355 17 344 350 343 317 233 249 270 310 319 332 341 354 279 219 224 208 199 197 194 194 186 179 174 168 197 183 227
7 5 348 353 4 353 342 328 307 316 308 312 240 243 291 297 313 14 318 243 223 219 194 193 190 198 189 161 147 205 153 186
13 355 341 351 351 348 348 334 330 330 318 319 305 294 277 263 272 300 311 323 287 276 257 207 206 198 213 206 348 150 184 162
19 347 338 341 343 343 336 329 317 316 314 305 306 297 246 248 233 220 257 296 312 321 246 196 222 200 201 175 186 305 172 152
358 321 336 328 331 335 325 314 324 322 315 305 298 285 276 233 232 198 207 236 231 254 324 271 230 233 206 203 196 185 180 158
335 347 336 338 344 336 332 324 327 316 314 305 295 296 319 318 317 274 218 220 236 233 212 255 285 230 215 198 188 199 162 199
348 336 323 322 323 326 329 323 311 315 310 307 305 307 293 275 294 304 320 300 223 217 252 242 213 245 230 226 209 198 188 179